Location: ??????????
(48.4699°N, 37.9573°E)
Time: 12:44:45
(UTC+00:00)

Cosmos 1626 Rocket - Pass Details

Date: 20 January 2021
Orbit: 603 x 631 km, 82.5° (Epoch: 27 February)

Event Time Altitude Azimuth Distance (km) Brightness Sun altitude
Rises 16:08:53 0° 180° (S) 2,866 7.1 -19.6°
Reaches altitude 10° 16:11:05 10° 178° (S) 1,971 6.2 -20.0°
Maximum altitude 16:15:25 67° 96° (E) 676 3.4 -20.7°
Enters shadow 16:16:52 40° 29° (NNE) 922 4.1 -20.9°
